{"data":{"norad_id":55332,"intl_designator":"2023-013B","name":"STARLINK-5491","alt_names":[],"object_type":"PAYLOAD","status":"ACTIVE","operator":null,"country":"US","launch_date":"2023-01-26","launch_site_code":"AFETR","launch_vehicle":null,"mission":null,"orbit_class":"UNKNOWN","rcs_meters":null,"size_class":null,"mass_kg":null,"dimensions":null,"purposes":["comms"],"wikipedia_slug":null,"has_3d_model":false,"image_url":null,"decayed_at":null,"tle_current":{"epoch":"2026-05-25T05:13:57.295200Z","epoch_age_seconds":56226,"freshness":"FRESH","line1":"1 55332U 23013B   26145.21802425  .00003015  00000+0  11896-3 0  9995","line2":"2 55332  42.9971 216.8176 0000255 311.2445  48.8385 15.27600926183540","mean_motion":15.27600926,"eccentricity":2.55e-5,"inclination_deg":42.9971,"raan_deg":216.8176,"arg_perigee_deg":311.2445,"mean_anomaly_deg":48.8385,"bstar":0.00011896,"rev_number":18354,"period_min":94.2654573908,"perigee_km":482.81147813522,"apogee_km":483.1613954305,"semimajor_km":6861.1234367829,"source":"CELESTRAK","updated_at":"2026-05-25T13:38:17.759564Z"}}}